Arklow Rock — PBZM — position and weather

sailwx.info

Track history (hours):
 
Tides and Currents Weather Stations Pressure Air Temp Water Temp Dewpoint Dewpoint Depression Visibility Wind Speed Wind Dir Waves Ship Positions

Arklow Rock

Last reported at 2014-Dec-23 04:22 UTC. Time now 2014-Dec-23 05:11 UTC.
Position N 54°41' W 005°39'.

Length 90 m; draft 5.9 m.

Type: Cargo ship. MMSI: 246002000.

Date/timePositionNaut miles runAvg speedWind from/ knotsBaromVisibWave heightAir tempDewpointWater temp
2014-Dec-23 04:22N 54°41' W 005°39'0 0.0
2014-Dec-23 03:31N 54°41' W 005°39'0 0.0
2014-Dec-23 02:31N 54°41' W 005°39'0 0.0
2014-Dec-23 01:28N 54°41' W 005°39'0 0.0
2014-Dec-23 00:31N 54°41' W 005°39'0 0.0
2014-Dec-22 23:34N 54°41' W 005°39'0 0.0
2014-Dec-22 22:27N 54°41' W 005°39'0 0.1
2014-Dec-22 21:30N 54°41' W 005°39'0 0.0
2014-Dec-22 20:33N 54°41' W 005°39'0 0.0
2014-Dec-22 19:33N 54°41' W 005°39'0 0.0
2014-Dec-22 18:30N 54°41' W 005°39'0 0.0
2014-Dec-22 17:30N 54°41' W 005°39'0 0.0
2014-Dec-22 16:30N 54°41' W 005°39'1 1.0
2014-Dec-22 15:33N 54°42' W 005°38'7 7.4
2014-Dec-22 14:33N 54°43' W 005°26'10 9.7
2014-Dec-22 13:33N 54°33' W 005°25'1212.5
2014-Dec-22 12:33N 54°21' W 005°21'12511.1
2014-Dec-22 01:20N 52°17' W 005°42'7 8.0
2014-Dec-22 00:25N 52°10' W 005°44'153 6.9
2014-Dec-21 02:06N 50°09' W 003°12'14210.5
2014-Dec-20 12:33N 50°37' E 000°27'10 9.8
2014-Dec-20 11:33N 50°42' E 000°40'9 9.4
2014-Dec-20 10:33N 50°47' E 000°53'18 9.0
2014-Dec-20 08:34N 50°58' E 001°15'1010.0
2014-Dec-20 07:33N 51°04' E 001°27'1312.7
2014-Dec-20 06:33N 51°12' E 001°43'1312.8
2014-Dec-20 05:33N 51°22' E 001°56'8 8.3
2014-Dec-20 04:32N 51°22' E 002°10'9 9.2
2014-Dec-20 03:32N 51°22' E 002°24'1010.1
2014-Dec-20 02:33N 51°23' E 002°40'8 7.5
2014-Dec-20 01:32N 51°22' E 002°52'11 9.3
2014-Dec-20 00:23N 51°23' E 003°09'7 8.9
2014-Dec-19 23:33N 51°24' E 003°21'8 8.1
2014-Dec-19 22:33N 51°26' E 003°34'5 5.1
2014-Dec-19 21:33N 51°25' E 003°42'7 6.9
2014-Dec-19 20:33N 51°20' E 003°49'3 3.0
2014-Dec-19 19:33N 51°17' E 003°50'1 0.9
2014-Dec-19 18:33N 51°16' E 003°51'0 0.0
2014-Dec-19 17:32N 51°16' E 003°51'0 0.0
2014-Dec-19 16:32N 51°16' E 003°51'0 0.0
2014-Dec-19 15:32N 51°16' E 003°51'0 0.0
2014-Dec-19 14:32N 51°16' E 003°51'0 0.0
2014-Dec-19 13:32N 51°16' E 003°51'0 0.0
2014-Dec-19 12:32N 51°16' E 003°51'0 0.0
2014-Dec-19 11:32N 51°16' E 003°51'0 0.0
2014-Dec-19 10:32N 51°16' E 003°51'0 0.0
2014-Dec-19 09:32N 51°16' E 003°51'0 0.0
2014-Dec-19 08:26N 51°16' E 003°51'0 0.0
2014-Dec-19 07:26N 51°16' E 003°51'0 0.0
2014-Dec-19 06:26N 51°16' E 003°51'0 0.0
2014-Dec-19 05:32N 51°16' E 003°51'0 0.0
2014-Dec-19 04:26N 51°16' E 003°51'0 0.0
2014-Dec-19 03:32N 51°16' E 003°51'0 0.0
2014-Dec-19 02:28N 51°16' E 003°51'0 0.0
2014-Dec-19 01:31N 51°16' E 003°51'0 0.0
2014-Dec-19 00:22N 51°16' E 003°51'0 0.0
2014-Dec-18 23:31N 51°16' E 003°51'0 0.0
2014-Dec-18 22:31N 51°16' E 003°51'0 0.0
2014-Dec-18 21:28N 51°16' E 003°51'0 0.0
2014-Dec-18 20:31N 51°16' E 003°51'0 0.0
2014-Dec-18 19:31N 51°16' E 003°51'0 0.0
2014-Dec-18 18:25N 51°16' E 003°51'0 0.0
2014-Dec-18 17:31N 51°16' E 003°51'0 0.0
2014-Dec-18 16:28N 51°16' E 003°51'0 0.0
2014-Dec-18 15:28N 51°16' E 003°51'0 0.0
2014-Dec-18 14:31N 51°16' E 003°51'0 0.0
2014-Dec-18 13:28N 51°16' E 003°51'0 0.0
2014-Dec-18 12:28N 51°16' E 003°51'0 0.0
2014-Dec-18 11:31N 51°16' E 003°51'0 0.0
2014-Dec-18 10:31N 51°16' E 003°51'0 0.0
2014-Dec-18 09:28N 51°16' E 003°51'0 0.0
2014-Dec-18 08:28N 51°16' E 003°51'0 0.0
2014-Dec-18 07:31N 51°16' E 003°51'0 0.0
2014-Dec-18 06:31N 51°16' E 003°51'0 0.0
2014-Dec-18 05:28N 51°16' E 003°51'0 0.0
2014-Dec-18 04:28N 51°16' E 003°51'0 0.0
2014-Dec-18 03:31N 51°16' E 003°51'0 0.0
2014-Dec-18 02:33N 51°16' E 003°51'4 3.6
2014-Dec-18 01:34N 51°20' E 003°49'4 3.5
2014-Dec-18 00:34N 51°22' E 003°45'9 8.8
2014-Dec-17 23:34N 51°27' E 003°33'8 8.0
2014-Dec-17 22:34N 51°33' E 003°25'10 9.6
2014-Dec-17 21:33N 51°42' E 003°18'6 6.2
2014-Dec-17 20:32N 51°48' E 003°20'0 0.1
2014-Dec-17 19:32N 51°48' E 003°20'0 0.0
2014-Dec-17 18:32N 51°48' E 003°20'0 0.0
2014-Dec-17 14:20N 51°48' E 003°20'0 0.0
2014-Dec-17 08:26N 51°48' E 003°20'0 0.1
2014-Dec-17 07:26N 51°48' E 003°20'0 0.1
2014-Dec-17 06:32N 51°48' E 003°20'0 0.1
2014-Dec-17 05:32N 51°48' E 003°20'0 0.0
2014-Dec-17 04:32N 51°48' E 003°20'0 0.0
2014-Dec-17 03:11N 51°48' E 003°20'0 0.0
2014-Dec-17 02:08N 51°48' E 003°20'0 0.7
2014-Dec-17 01:25N 51°48' E 003°20'19 8.6
2014-Dec-16 23:11N 52°04' E 003°37'711.1
2014-Dec-16 22:33N 52°04' E 003°48'10 9.6
2014-Dec-16 21:33N 51°60' E 004°02'1211.7
2014-Dec-16 20:33N 51°54' E 004°19'2 2.1
2014-Dec-16 19:33N 51°52' E 004°20'8 8.4
2014-Dec-16 18:34N 51°50' E 004°33'4 3.7
2014-Dec-16 17:32N 51°48' E 004°38'0 0.0
2014-Dec-16 16:29N 51°48' E 004°38'0 0.0
2014-Dec-16 15:26N 51°48' E 004°38'0 0.0
2014-Dec-16 14:32N 51°48' E 004°38'0 0.0
2014-Dec-16 13:32N 51°48' E 004°38'0 0.0
2014-Dec-16 12:32N 51°48' E 004°38'0 0.0
2014-Dec-16 11:32N 51°48' E 004°38'0 0.0
2014-Dec-16 10:32N 51°48' E 004°38'0 0.0
2014-Dec-16 09:32N 51°48' E 004°38'0 0.0
2014-Dec-16 08:32N 51°48' E 004°38'0 0.0
2014-Dec-16 07:32N 51°48' E 004°38'0 0.0
2014-Dec-16 06:32N 51°48' E 004°38'0 0.0
2014-Dec-16 05:33N 51°48' E 004°38'0 0.0
2014-Dec-16 04:30N 51°48' E 004°38'0 0.0
2014-Dec-16 03:32N 51°48' E 004°38'0 0.0
2014-Dec-16 02:32N 51°48' E 004°38'0 0.0
2014-Dec-16 01:05N 51°48' E 004°38'0 0.0
2014-Dec-15 23:32N 51°48' E 004°38'0 0.0
2014-Dec-15 22:32N 51°48' E 004°38'0 0.0
2014-Dec-15 21:32N 51°48' E 004°38'0 0.0
2014-Dec-15 20:32N 51°48' E 004°38'0 0.0
2014-Dec-15 19:32N 51°48' E 004°38'1 1.1
2014-Dec-15 18:33N 51°48' E 004°37'8 8.1
2014-Dec-15 17:34N 51°51' E 004°24'6 6.5
2014-Dec-15 16:33N 51°54' E 004°16'9 8.5
2014-Dec-15 15:33N 51°59' E 004°04'10 9.3
2014-Dec-15 14:31N 51°60' E 003°49'6110.3
2014-Dec-15 08:33N 51°33' E 002°20'1211.8
2014-Dec-15 07:33N 51°23' E 002°08'1111.2
2014-Dec-15 06:33N 51°13' E 002°01'1212.2
2014-Dec-15 05:33N 51°05' E 001°46'1312.4
2014-Dec-15 04:32N 50°56' E 001°33'409 9.9
2014-Dec-13 11:13N 51°03' W 009°16'711.3
2014-Dec-13 10:33N 51°07' W 009°25'1211.7
2014-Dec-13 09:33N 51°15' W 009°40'1211.9
2014-Dec-13 08:33N 51°22' W 009°55'1311.8
2014-Dec-13 07:29N 51°30' W 010°11'  
Track history (hours):
 
Tides and Currents Weather Stations Pressure Air Temp Water Temp Dewpoint Dewpoint Depression Visibility Wind Speed Wind Dir Waves Ship Positions

Arklow Rock

Last reported at 2014-Dec-23 04:22 UTC. Time now 2014-Dec-23 05:11 UTC.
Position N 54°41' W 005°39'.

Length 90 m; draft 5.9 m.

Type: Cargo ship. MMSI: 246002000.

Date/timePositionNaut miles runAvg speedWind from/ knotsBaromVisibWave heightAir tempDewpointWater temp
2014-Dec-23 04:22N 54°41' W 005°39'0 0.0
2014-Dec-23 03:31N 54°41' W 005°39'0 0.0
2014-Dec-23 02:31N 54°41' W 005°39'0 0.0
2014-Dec-23 01:28N 54°41' W 005°39'0 0.0
2014-Dec-23 00:31N 54°41' W 005°39'0 0.0
2014-Dec-22 23:34N 54°41' W 005°39'0 0.0
2014-Dec-22 22:27N 54°41' W 005°39'0 0.1
2014-Dec-22 21:30N 54°41' W 005°39'0 0.0
2014-Dec-22 20:33N 54°41' W 005°39'0 0.0
2014-Dec-22 19:33N 54°41' W 005°39'0 0.0
2014-Dec-22 18:30N 54°41' W 005°39'0 0.0
2014-Dec-22 17:30N 54°41' W 005°39'0 0.0
2014-Dec-22 16:30N 54°41' W 005°39'1 1.0
2014-Dec-22 15:33N 54°42' W 005°38'7 7.4
2014-Dec-22 14:33N 54°43' W 005°26'10 9.7
2014-Dec-22 13:33N 54°33' W 005°25'1212.5
2014-Dec-22 12:33N 54°21' W 005°21'12511.1
2014-Dec-22 01:20N 52°17' W 005°42'7 8.0
2014-Dec-22 00:25N 52°10' W 005°44'153 6.9
2014-Dec-21 02:06N 50°09' W 003°12'14210.5
2014-Dec-20 12:33N 50°37' E 000°27'10 9.8
2014-Dec-20 11:33N 50°42' E 000°40'9 9.4
2014-Dec-20 10:33N 50°47' E 000°53'18 9.0
2014-Dec-20 08:34N 50°58' E 001°15'1010.0
2014-Dec-20 07:33N 51°04' E 001°27'1312.7
2014-Dec-20 06:33N 51°12' E 001°43'1312.8
2014-Dec-20 05:33N 51°22' E 001°56'8 8.3
2014-Dec-20 04:32N 51°22' E 002°10'9 9.2
2014-Dec-20 03:32N 51°22' E 002°24'1010.1
2014-Dec-20 02:33N 51°23' E 002°40'8 7.5
2014-Dec-20 01:32N 51°22' E 002°52'11 9.3
2014-Dec-20 00:23N 51°23' E 003°09'7 8.9
2014-Dec-19 23:33N 51°24' E 003°21'8 8.1
2014-Dec-19 22:33N 51°26' E 003°34'5 5.1
2014-Dec-19 21:33N 51°25' E 003°42'7 6.9
2014-Dec-19 20:33N 51°20' E 003°49'3 3.0
2014-Dec-19 19:33N 51°17' E 003°50'1 0.9
2014-Dec-19 18:33N 51°16' E 003°51'0 0.0
2014-Dec-19 17:32N 51°16' E 003°51'0 0.0
2014-Dec-19 16:32N 51°16' E 003°51'0 0.0
2014-Dec-19 15:32N 51°16' E 003°51'0 0.0
2014-Dec-19 14:32N 51°16' E 003°51'0 0.0
2014-Dec-19 13:32N 51°16' E 003°51'0 0.0
2014-Dec-19 12:32N 51°16' E 003°51'0 0.0
2014-Dec-19 11:32N 51°16' E 003°51'0 0.0
2014-Dec-19 10:32N 51°16' E 003°51'0 0.0
2014-Dec-19 09:32N 51°16' E 003°51'0 0.0
2014-Dec-19 08:26N 51°16' E 003°51'0 0.0
2014-Dec-19 07:26N 51°16' E 003°51'0 0.0
2014-Dec-19 06:26N 51°16' E 003°51'0 0.0
2014-Dec-19 05:32N 51°16' E 003°51'0 0.0
2014-Dec-19 04:26N 51°16' E 003°51'0 0.0
2014-Dec-19 03:32N 51°16' E 003°51'0 0.0
2014-Dec-19 02:28N 51°16' E 003°51'0 0.0
2014-Dec-19 01:31N 51°16' E 003°51'0 0.0
2014-Dec-19 00:22N 51°16' E 003°51'0 0.0
2014-Dec-18 23:31N 51°16' E 003°51'0 0.0
2014-Dec-18 22:31N 51°16' E 003°51'0 0.0
2014-Dec-18 21:28N 51°16' E 003°51'0 0.0
2014-Dec-18 20:31N 51°16' E 003°51'0 0.0
2014-Dec-18 19:31N 51°16' E 003°51'0 0.0
2014-Dec-18 18:25N 51°16' E 003°51'0 0.0
2014-Dec-18 17:31N 51°16' E 003°51'0 0.0
2014-Dec-18 16:28N 51°16' E 003°51'0 0.0
2014-Dec-18 15:28N 51°16' E 003°51'0 0.0
2014-Dec-18 14:31N 51°16' E 003°51'0 0.0
2014-Dec-18 13:28N 51°16' E 003°51'0 0.0
2014-Dec-18 12:28N 51°16' E 003°51'0 0.0
2014-Dec-18 11:31N 51°16' E 003°51'0 0.0
2014-Dec-18 10:31N 51°16' E 003°51'0 0.0
2014-Dec-18 09:28N 51°16' E 003°51'0 0.0
2014-Dec-18 08:28N 51°16' E 003°51'0 0.0
2014-Dec-18 07:31N 51°16' E 003°51'0 0.0
2014-Dec-18 06:31N 51°16' E 003°51'0 0.0
2014-Dec-18 05:28N 51°16' E 003°51'0 0.0
2014-Dec-18 04:28N 51°16' E 003°51'0 0.0
2014-Dec-18 03:31N 51°16' E 003°51'0 0.0
2014-Dec-18 02:33N 51°16' E 003°51'4 3.6
2014-Dec-18 01:34N 51°20' E 003°49'4 3.5
2014-Dec-18 00:34N 51°22' E 003°45'9 8.8
2014-Dec-17 23:34N 51°27' E 003°33'8 8.0
2014-Dec-17 22:34N 51°33' E 003°25'10 9.6
2014-Dec-17 21:33N 51°42' E 003°18'6 6.2
2014-Dec-17 20:32N 51°48' E 003°20'0 0.1
2014-Dec-17 19:32N 51°48' E 003°20'0 0.0
2014-Dec-17 18:32N 51°48' E 003°20'0 0.0
2014-Dec-17 14:20N 51°48' E 003°20'0 0.0
2014-Dec-17 08:26N 51°48' E 003°20'0 0.1
2014-Dec-17 07:26N 51°48' E 003°20'0 0.1
2014-Dec-17 06:32N 51°48' E 003°20'0 0.1
2014-Dec-17 05:32N 51°48' E 003°20'0 0.0
2014-Dec-17 04:32N 51°48' E 003°20'0 0.0
2014-Dec-17 03:11N 51°48' E 003°20'0 0.0
2014-Dec-17 02:08N 51°48' E 003°20'0 0.7
2014-Dec-17 01:25N 51°48' E 003°20'19 8.6
2014-Dec-16 23:11N 52°04' E 003°37'711.1
2014-Dec-16 22:33N 52°04' E 003°48'10 9.6
2014-Dec-16 21:33N 51°60' E 004°02'1211.7
2014-Dec-16 20:33N 51°54' E 004°19'2 2.1
2014-Dec-16 19:33N 51°52' E 004°20'8 8.4
2014-Dec-16 18:34N 51°50' E 004°33'4 3.7
2014-Dec-16 17:32N 51°48' E 004°38'0 0.0
2014-Dec-16 16:29N 51°48' E 004°38'0 0.0
2014-Dec-16 15:26N 51°48' E 004°38'0 0.0
2014-Dec-16 14:32N 51°48' E 004°38'0 0.0
2014-Dec-16 13:32N 51°48' E 004°38'0 0.0
2014-Dec-16 12:32N 51°48' E 004°38'0 0.0
2014-Dec-16 11:32N 51°48' E 004°38'0 0.0
2014-Dec-16 10:32N 51°48' E 004°38'0 0.0
2014-Dec-16 09:32N 51°48' E 004°38'0 0.0
2014-Dec-16 08:32N 51°48' E 004°38'0 0.0
2014-Dec-16 07:32N 51°48' E 004°38'0 0.0
2014-Dec-16 06:32N 51°48' E 004°38'0 0.0
2014-Dec-16 05:33N 51°48' E 004°38'0 0.0
2014-Dec-16 04:30N 51°48' E 004°38'0 0.0
2014-Dec-16 03:32N 51°48' E 004°38'0 0.0
2014-Dec-16 02:32N 51°48' E 004°38'0 0.0
2014-Dec-16 01:05N 51°48' E 004°38'0 0.0
2014-Dec-15 23:32N 51°48' E 004°38'0 0.0
2014-Dec-15 22:32N 51°48' E 004°38'0 0.0
2014-Dec-15 21:32N 51°48' E 004°38'0 0.0
2014-Dec-15 20:32N 51°48' E 004°38'0 0.0
2014-Dec-15 19:32N 51°48' E 004°38'1 1.1
2014-Dec-15 18:33N 51°48' E 004°37'8 8.1
2014-Dec-15 17:34N 51°51' E 004°24'6 6.5
2014-Dec-15 16:33N 51°54' E 004°16'9 8.5
2014-Dec-15 15:33N 51°59' E 004°04'10 9.3
2014-Dec-15 14:31N 51°60' E 003°49'6110.3
2014-Dec-15 08:33N 51°33' E 002°20'1211.8
2014-Dec-15 07:33N 51°23' E 002°08'1111.2
2014-Dec-15 06:33N 51°13' E 002°01'1212.2
2014-Dec-15 05:33N 51°05' E 001°46'1312.4
2014-Dec-15 04:32N 50°56' E 001°33'409 9.9
2014-Dec-13 11:13N 51°03' W 009°16'711.3
2014-Dec-13 10:33N 51°07' W 009°25'1211.7
2014-Dec-13 09:33N 51°15' W 009°40'1211.9
2014-Dec-13 08:33N 51°22' W 009°55'1311.8
2014-Dec-13 07:29N 51°30' W 010°11'  

Dump ship's entire track history